Weather Roundup
Issued by NWS Springfield, MO

Home | Current Version | Previous Version | Text Only | Print | Product List | Glossary On
Versions: 1 2 3 4 5 6 7 8 9 10 11 12 13 14 15 16 17 18 19 20 21 22 23 24 25 26 27 28 29 30 31 32 33 34 35 36 37 38 39 40 41 42 43 44 45 46 47 48 49 50
000
NZUS99 KSGF 300007
HRRSGF

HOURLY WEATHER
NATIONAL WEATHER SERVICE SPRINGFIELD MO
700 PM CDT WED MAR 29 2017

......SGF CWA......

CITY           SKY/WX    TMP DP  RH WIND       PRES   REMARKS
SPRINGFIELD    PTCLDY    69  58  67 S15       29.68R
6HR MIN TEMP:  68; 6HR MAX TEMP:  73;

JOPLIN         MOCLDY    71  54  54 SW13G22   29.64R
6HR MIN TEMP:  69; 6HR MAX TEMP:  77;

WEST PLAINS    TSTM      71  61  70 SE13G21   29.73F
6HR MIN TEMP:  66; 6HR MAX TEMP:  73; 6HR PCP: TRACE;

ROLLA          LGT RAIN  66  59  78 E8        29.73S
6HR MIN TEMP:  62; 6HR MAX TEMP:  71; 6HR PCP: TRACE;

OSAGE BEACH    CLOUDY    67  62  84 SE7       29.71F
BRANSON        MOCLDY    70  57  64 S7G18     29.71S

......SURROUNDING SGF CWA......

CITY           SKY/WX    TMP DP  RH WIND       PRES   REMARKS
CHANUTE        TSTM      61  55  81 S8        29.62S
PARSONS        CLOUDY    63  55  75 S6        29.65R
COFFEYVILLE    CLOUDY    64  52  64 SW10      29.64R
EMPORIA        CLOUDY    59  52  77 S13       29.59R
GROVE OK       PTCLDY    72  55  56 S12       29.64S
ROGERS AR      PTCLDY    70  56  61 S12G26    29.69R
SILOAM SPRINGS CLEAR     70  54  56 S15       29.66S
HARRISON AR    LGT RAIN  69  60  73 S9G21     29.71F
NEAR YELLVILLE CLOUDY    73  57  56 SE7       29.68S

......KANSAS AND MISSOURI......

CITY           SKY/WX    TMP DP  RH WIND       PRES   REMARKS
KANSAS CTY INT MOCLDY    54  53  97 NE10      29.66F
DOWNTOWN KC    MOCLDY    60  55  83 NE9       29.66F
COLUMBIA       MOCLDY    62  57  83 E15       29.73F
SEDALIA        CLOUDY    60  57  89 E10       29.69F
ST JOSEPH      LGT RAIN  52  52 100 NE9       29.67F
ST LOUIS       CLOUDY    66  54  65 E16       29.82F
SPIRIT OF STL  CLOUDY    66  57  72 E8        29.79F
KIRKSVILLE     CLOUDY    50  49  96 E15       29.80F
WICHITA        LGT RAIN  52  50  93 S12       29.57S FOG
TOPEKA         CLOUDY    58  56  93 NE14      29.61F
OLATHE         CLOUDY    59  58  96 E5        29.65R

......TENNESSEE......

CITY           SKY/WX    TMP DP  RH WIND       PRES   REMARKS
MEMPHIS        CLOUDY    78  55  44 S15G22    29.81S
NASHVILLE      MOCLDY    77  58  51 SE10      29.89F

......ARKANSAS.......

CITY           SKY/WX    TMP DP  RH WIND       PRES   REMARKS
FAYETTEVILLE   PTCLDY    69  57  65 S12       29.68R
FT SMITH       MOCLDY    75  57  53 SW5       29.68R
LITTLE ROCK    CLOUDY    77  60  55 S14       29.74R

......OKLAHOMA.......

CITY           SKY/WX    TMP DP  RH WIND       PRES   REMARKS
TULSA          PTCLDY    65  51  60 SW20G28   29.66R
PONCA CITY     CLOUDY    53  46  77 SW15G24   29.66R
MCALESTER      PTCLDY    72  53  51 W10       29.71R
OKLAHOMA CITY  MOCLDY    54  42  64 NW20G31   29.77R

......IOWA............

CITY           SKY/WX    TMP DP  RH WIND       PRES   REMARKS
DES MOINES     LGT RAIN  45  42  89 E16G29    29.88F FOG
QUAD CITIES    CLOUDY    46  41  82 E21       29.98R

......ILLINOIS........

CITY           SKY/WX    TMP DP  RH WIND       PRES   REMARKS
QUINCY         LGT RAIN  53  50  89 E16       29.84F
CHICAGO        LGT RAIN  46  36  68 NE10G21   30.11R



USA.gov is the U.S. government's official web portal to all federal, state and local government web resources and services.